Hourly Weather Roundup
Issued by NWS Central Illinois

Home | Current Version | Previous Version | Text Only | Print | Product List | Glossary On
Versions: 1 2 3 4 5 6 7 8 9 10 11 12 13 14 15 16 17 18 19 20 21 22 23 24 25 26 27 28 29 30 31 32 33 34 35 36 37 38 39 40 41 42 43 44 45 46 47 48 49 50
000
NZUS43 KILX 261710
HWRILX

Area Weather Roundup
National Weather Service Lincoln IL
1200 PM CDT TUE SEP 26 2017

NOTE:  "FAIR" indicates few or no clouds below 12,000 feet, with
       no sigificant weather and/or obstructions to visibility.


CITY           SKY/WX    TMP DP  RH WIND       PRES   REMARKS
Bloomington    SUNNY     86  64  47 SW14G20   30.00F HX  87
Champaign      PTSUNNY   90  58  33 SW15      30.00F HX  89
Danville       SUNNY     89  63  41 SW8       29.99S HX  89
Decatur        SUNNY     88  60  38 SW13G21   30.00F HX  87
Effingham      SUNNY     88  63  42 S8        30.02F HX  88
Flora          MOSUNNY   91  64  41 W5        30.01F HX  92
Galesburg      MOSUNNY   83  65  53 SW10      29.97F HX  85
Jacksonville   SUNNY     88  63  43 SW10G16   29.98F HX  88
Lacon          MOSUNNY   87  64  47 S10       29.95F HX  88
Lawrenceville  MOSUNNY   87  64  46 CALM      30.01F HX  88
Litchfield     SUNNY     87  63  44 W9        30.01S HX  87
$$


CITY           SKY/WX    TMP DP  RH WIND       PRES   REMARKS
Lincoln        SUNNY     89  64  43 S8G16     29.98F HX  90
Macomb         CLOUDY    83  64  51 W9        30.00S HX  85
Mattoon        MOSUNNY   87  64  46 SW9       30.01S HX  88
Mt Carmel AP   MOSUNNY   88  63  42 CALM      30.01F HX  89
Olney-Noble AP MOSUNNY   88  58  36 SE6       30.01F HX  87
Paris AP       MOSUNNY   89  64  43 SW7       30.01F HX  90
Peoria         SUNNY     86  64  47 SW15      29.97F HX  87
Pontiac        MOSUNNY   89  62  41 SW15      29.98F HX  89
Rantoul        SUNNY     88  64  45 W7        30.00F HX  89
Robinson       PTSUNNY   87  65  47 S6        30.02F HAZE    HX  89
Springfield    SUNNY     90  63  40 SW12G18   29.98F HX  91
Taylorville    MOSUNNY   89  61  38 SW10      30.00S HX  89
$$

...REGIONAL REPORTS...


CITY           SKY/WX    TMP DP  RH WIND       PRES   REMARKS
Chicago O`Hare MOSUNNY   88  62  41 SW13      29.94F HX  88
Kankakee       SUNNY     88  62  40 SW15      29.99S HX  88
Moline         MOSUNNY   82  67  60 W10       29.95S HX  84
Mount Sterling SUNNY     84  66  55 SW7       29.98S HX  86
Mount Vernon     N/A     88  64  44 SW7       30.01F HX  89
Pittsfield     MOSUNNY   87  66  50 W9G16     30.00S HX  89
Quincy         SUNNY     82  65  56 W7        29.98F HX  84
Rockford       PTSUNNY   85  63  47 SW7       29.95F HX  86
$$


CITY           SKY/WX    TMP DP  RH WIND       PRES   REMARKS
Burlington     SUNNY     82  68  62 NW10      29.97R HX  85
Cedar Rapids   LGT RAIN  71  67  87 W9        29.99R
Des Moines     CLOUDY    65  59  81 NW13      30.04R
Kirksville     CLOUDY    74  65  73 W8        30.02S
Ottumwa        CLOUDY    70  67  90 NW8       30.00S
St Louis       MOSUNNY   88  63  43 SW8G16    30.00F HX  89
$$


CITY           SKY/WX    TMP DP  RH WIND       PRES   REMARKS
Terre Haute    SUNNY     88  63  43 S8        30.01F HX  89
Evansville     MOSUNNY   86  64  47 S5        30.01F HX  87
Indianapolis   MOSUNNY   88  66  48 S8        30.02F HX  90
Lafayette      MOSUNNY   87  65  47 SW7       30.00S HX  89
Madison        CLOUDY    77  65  66 SW6       29.93F
Milwaukee      PTSUNNY   86  66  51 S12       29.93F HX  88
$$





USA.gov is the U.S. government's official web portal to all federal, state and local government web resources and services.